Tracking 25648 objects as of 17-May-2022
HD Live streaming from Space Station
objects crossing your sky now

ONEWEB-0181

Track ONEWEB-0181 now!
10-day predictions
ONEWEB-0181 is classified as:


NORAD ID: 48230
Int'l Code: 2021-031W
Perigee: 1,211.9 km
Apogee: 1,213.9 km
Inclination: 87.9 °
Period: 109.5 minutes
Semi major axis: 7583 km
RCS: Unknown
Launch date: April 25, 2021
Source: United Kingdom (UK)
Launch site: VOSTOCHNY COSMODROME (VOSTO)
aabbcc
Your satellite tracking list
Your tracking list is empty




NASA's NSSDC Master Catalog

Two Line Element Set (TLE):
1 48230U 21031W   22136.72833911 -.00000806  00000-0 -22074-2 0  9995
2 48230  87.9058 226.3322 0001271 105.0464 255.0806 13.14508584 52166
Source of the keplerian elements: AFSPC